When you browse on this site, cookies collect data to enhance your experience and personalize the content and advertising you see.
Visit our Privacy Policy to learn more. By continuing to use the site, you agree to this use of cookies and data.
  • In Österreich
  • Länderverzeichnis
  • Für 7 Tage
  • Wassertemperatur
  • Satellitenkarten
  • Wetterkarte
  • News
  • Widgets
  • user-avatar
    Anmelden

    Stündliche Wetter Kadobna

    Heute, 16 Februar, Samstag

    Zeit Temperatur Niederschläge Wind Luftdruck Luftfeuchtigkeit
    00:00 -1°C° 0 mm 2 m/S 739 mmHg 86%
    01:00 +1°C° 0 mm 2 m/S 739 mmHg 86%
    02:00 -1°C° 0 mm 2 m/S 739 mmHg 88%
    03:00 -1°C° 0 mm 2 m/S 739 mmHg 88%
    04:00 -1°C° 0 mm 2 m/S 739 mmHg 88%
    05:00 -1°C° 0 mm 2 m/S 739 mmHg 88%
    06:00 -1°C° 0 mm 2 m/S 739 mmHg 88%
    07:00 -1°C° 0 mm 2 m/S 739 mmHg 88%
    08:00 -1°C° 0 mm 2 m/S 739 mmHg 87%
    09:00 +2°C° 0 mm 2 m/S 739 mmHg 85%
    10:00 +3°C° 0 mm 2 m/S 739 mmHg 83%
    11:00 +5°C° 0 mm 2 m/S 739 mmHg 80%
    12:00 +6°C° 0 mm 2 m/S 739 mmHg 79%
    13:00 +7°C° 0 mm 2 m/S 739 mmHg 78%
    14:00 +7°C° 0 mm 2 m/S 739 mmHg 77%
    15:00 +6°C° 0 mm 2 m/S 738 mmHg 81%
    16:00 +7°C° 0 mm 1 m/S 738 mmHg 84%
    17:00 +6°C° 0 mm 1 m/S 738 mmHg 88%
    18:00 +5°C° 0 mm 1 m/S 738 mmHg 88%
    19:00 +3°C° 0 mm 2 m/S 738 mmHg 88%
    20:00 +2°C° 0 mm 2 m/S 738 mmHg 88%
    21:00 +2°C° 0 mm 2 m/S 738 mmHg 86%
    22:00 +2°C° 0 mm 2 m/S 738 mmHg 85%
    23:00 +1°C° 0 mm 2 m/S 737 mmHg 83%

    Morgen, 17 Februar, Sonntag

    Zeit Temperatur Niederschläge Wind Luftdruck Luftfeuchtigkeit
    00:00 0°C° 0 mm 3 m/S 737 mmHg 82%
    01:00 0°C° 0 mm 3 m/S 737 mmHg 82%
    02:00 0°C° 0 mm 3 m/S 737 mmHg 81%
    03:00 0°C° 0 mm 3 m/S 737 mmHg 81%
    04:00 0°C° 0 mm 3 m/S 736 mmHg 81%
    05:00 0°C° 0 mm 3 m/S 736 mmHg 81%
    06:00 0°C° 0 mm 3 m/S 736 mmHg 81%
    07:00 0°C° 0 mm 3 m/S 736 mmHg 81%
    08:00 0°C° 0 mm 3 m/S 736 mmHg 80%
    09:00 +3°C° 0 mm 3 m/S 736 mmHg 76%
    10:00 +5°C° 0 mm 3 m/S 736 mmHg 71%
    11:00 +8°C° 0 mm 3 m/S 736 mmHg 67%
    12:00 +9°C° 0 mm 3 m/S 736 mmHg 65%
    13:00 +9°C° 0 mm 3 m/S 736 mmHg 64%
    14:00 +10°C° 0 mm 4 m/S 735 mmHg 62%
    15:00 +9°C° 0 mm 3 m/S 735 mmHg 67%
    16:00 +8°C° 0 mm 3 m/S 735 mmHg 72%
    17:00 +5°C° 0 mm 3 m/S 735 mmHg 77%
    18:00 +4°C° 0 mm 3 m/S 735 mmHg 77%
    19:00 +3°C° 0 mm 3 m/S 735 mmHg 77%
    20:00 +2°C° 0 mm 3 m/S 735 mmHg 77%
    21:00 +1°C° 0 mm 3 m/S 735 mmHg 76%
    22:00 +1°C° 0 mm 3 m/S 735 mmHg 74%
    23:00 +1°C° 0 mm 3 m/S 735 mmHg 73%

    übermorgen, 18 Februar, Montag

    Zeit Temperatur Niederschläge Wind Luftdruck Luftfeuchtigkeit
    00:00 +2°C° 0 mm 2 m/S 735 mmHg 73%
    01:00 +2°C° 0 mm 2 m/S 735 mmHg 73%
    02:00 +1°C° 0 mm 2 m/S 735 mmHg 73%
    03:00 +1°C° 0 mm 2 m/S 735 mmHg 74%
    04:00 +1°C° 0 mm 2 m/S 735 mmHg 75%
    05:00 +1°C° 0 mm 2 m/S 735 mmHg 77%
    06:00 +2°C° 0 mm 1 m/S 735 mmHg 77%
    07:00 +2°C° 0 mm 1 m/S 735 mmHg 78%
    08:00 +2°C° 0 mm 1 m/S 735 mmHg 79%
    09:00 +3°C° 0 mm 1 m/S 735 mmHg 76%
    10:00 +5°C° 0 mm 1 m/S 735 mmHg 73%
    11:00 +6°C° 0 mm 1 m/S 736 mmHg 70%
    12:00 +7°C° 0 mm 1 m/S 735 mmHg 71%
    13:00 +7°C° 0 mm 1 m/S 735 mmHg 71%
    14:00 +8°C° 0 mm 1 m/S 735 mmHg 72%
    15:00 +7°C° 0 mm 1 m/S 735 mmHg 76%
    16:00 +6°C° 0 mm 1 m/S 735 mmHg 81%
    17:00 +6°C° 0 mm 1 m/S 734 mmHg 86%
    18:00 +5°C° 0 mm 1 m/S 734 mmHg 88%
    19:00 +4°C° 0 mm 1 m/S 734 mmHg 91%
    20:00 +3°C° 0 mm 1 m/S 734 mmHg 93%
    21:00 +1°C° 0 mm 2 m/S 735 mmHg 92%
    22:00 +1°C° 0 mm 2 m/S 735 mmHg 92%
    23:00 +1°C° 0 mm 2 m/S 735 mmHg 91%

    19 Februar, Dienstag

    Zeit Temperatur Niederschläge Wind Luftdruck Luftfeuchtigkeit
    00:00 +1°C° 0 mm 2 m/S 734 mmHg 91%
    01:00 +1°C° 0 mm 2 m/S 734 mmHg 90%
    02:00 +1°C° 0 mm 2 m/S 734 mmHg 90%
    03:00 +1°C° 0 mm 2 m/S 734 mmHg 89%
    04:00 +1°C° 0 mm 2 m/S 734 mmHg 89%
    05:00 +1°C° 0 mm 2 m/S 733 mmHg 88%
    06:00 +1°C° 0 mm 2 m/S 733 mmHg 87%
    07:00 +1°C° 0 mm 2 m/S 733 mmHg 86%
    08:00 +1°C° 0 mm 2 m/S 733 mmHg 85%
    09:00 +3°C° 0 mm 2 m/S 733 mmHg 78%
    10:00 +5°C° 0 mm 2 m/S 733 mmHg 70%
    11:00 +7°C° 0 mm 2 m/S 733 mmHg 63%
    12:00 +8°C° 0 mm 2 m/S 733 mmHg 60%
    13:00 +9°C° 0 mm 2 m/S 732 mmHg 57%
    14:00 +10°C° 0 mm 2 m/S 732 mmHg 54%
    15:00 +9°C° 0 mm 2 m/S 732 mmHg 59%
    16:00 +9°C° 0 mm 1 m/S 731 mmHg 65%
    17:00 +8°C° 0 mm 1 m/S 731 mmHg 71%
    18:00 +6°C° 0 mm 2 m/S 731 mmHg 74%
    19:00 +4°C° 0 mm 2 m/S 731 mmHg 78%
    20:00 +3°C° 0 mm 2 m/S 731 mmHg 81%
    21:00 +3°C° 0 mm 2 m/S 731 mmHg 80%
    22:00 +3°C° 0 mm 2 m/S 732 mmHg 79%
    23:00 +3°C° 0 mm 2 m/S 732 mmHg 78%

    20 Februar, Mittwoch

    Zeit Temperatur Niederschläge Wind Luftdruck Luftfeuchtigkeit
    00:00 +2°C° 0 mm 3 m/S 732 mmHg 79%
    01:00 +2°C° 0 mm 3 m/S 732 mmHg 80%
    02:00 +1°C° 0 mm 3 m/S 732 mmHg 81%
    03:00 +1°C° 0 mm 3 m/S 732 mmHg 82%
    04:00 +1°C° 0 mm 3 m/S 732 mmHg 83%
    05:00 +1°C° 0 mm 3 m/S 732 mmHg 84%
    06:00 +1°C° 0 mm 3 m/S 732 mmHg 83%
    07:00 +2°C° 0 mm 2 m/S 732 mmHg 83%
    08:00 +2°C° 0 mm 2 m/S 732 mmHg 83%
    09:00 +3°C° 0 mm 2 m/S 732 mmHg 80%
    10:00 +5°C° 0 mm 2 m/S 732 mmHg 77%
    11:00 +6°C° 0 mm 2 m/S 732 mmHg 74%
    12:00 +7°C° 0 mm 2 m/S 732 mmHg 71%
    13:00 +8°C° 0 mm 3 m/S 732 mmHg 69%
    14:00 +8°C° 0 mm 3 m/S 731 mmHg 66%
    15:00 +8°C° 0 mm 3 m/S 731 mmHg 68%
    16:00 +7°C° 0 mm 3 m/S 731 mmHg 70%
    17:00 +7°C° 0 mm 3 m/S 731 mmHg 73%
    18:00 +5°C° 0 mm 3 m/S 732 mmHg 76%
    19:00 +4°C° 0 mm 3 m/S 732 mmHg 80%
    20:00 +3°C° 0 mm 3 m/S 732 mmHg 84%
    21:00 +3°C° 0 mm 3 m/S 733 mmHg 84%
    22:00 +2°C° 0 mm 3 m/S 733 mmHg 84%
    23:00 +2°C° 0 mm 3 m/S 733 mmHg 84%

    21 Februar, Donnerstag

    Zeit Temperatur Niederschläge Wind Luftdruck Luftfeuchtigkeit
    00:00 +2°C° 0 mm 3 m/S 733 mmHg 83%
    01:00 +2°C° 0 mm 3 m/S 733 mmHg 83%
    02:00 +2°C° 0 mm 3 m/S 733 mmHg 83%
    03:00 +2°C° 0 mm 3 m/S 733 mmHg 84%
    04:00 +1°C° 0 mm 3 m/S 733 mmHg 85%
    05:00 +1°C° 0 mm 3 m/S 733 mmHg 85%
    06:00 +1°C° 0 mm 3 m/S 733 mmHg 84%
    07:00 +1°C° 0 mm 3 m/S 733 mmHg 83%
    08:00 +1°C° 0 mm 3 m/S 733 mmHg 82%
    09:00 +3°C° 0 mm 3 m/S 734 mmHg 76%
    10:00 +4°C° 0 mm 4 m/S 734 mmHg 69%
    11:00 +6°C° 0 mm 4 m/S 734 mmHg 63%
    12:00 +7°C° 0 mm 4 m/S 733 mmHg 62%
    13:00 +7°C° 0 mm 4 m/S 733 mmHg 60%
    14:00 +8°C° 0 mm 5 m/S 733 mmHg 59%
    15:00 +7°C° 0.1 mm 4 m/S 732 mmHg 63%
    16:00 +7°C° 0.1 mm 3 m/S 732 mmHg 68%
    17:00 +5°C° 0.1 mm 3 m/S 732 mmHg 72%
    18:00 +6°C° 0.2 mm 2 m/S 732 mmHg 75%
    19:00 +5°C° 0.2 mm 2 m/S 732 mmHg 78%
    20:00 +5°C° 0.2 mm 2 m/S 732 mmHg 80%
    21:00 +4°C° 0.3 mm 2 m/S 732 mmHg 82%
    22:00 +4°C° 0.3 mm 2 m/S 732 mmHg 84%
    23:00 +4°C° 0.3 mm 2 m/S 732 mmHg 85%
    Mehr zeigen